Regional Weather Roundup
Issued by NWS Jackson, KY

Home | Current Version | Previous Version | Graphics & Text | Print | Product List | Glossary On
Versions: 1 2 3 4 5 6 7 8 9 10 11 12 13 14 15 16 17 18 19 20 21 22 23 24 25 26 27 28 29 30 31 32 33 34 35 36 37 38 39 40 41 42 43 44 45 46 47 48 49 50
000
ASUS43 KJKL 292011
RWRJKL

EAST KENTUCKY HOURLY WEATHER ROUNDUP
NATIONAL WEATHER SERVICE JACKSON KY
400 PM EDT FRI AUG 29 2014

NOTE: "FAIR" INDICATES FEW OR NO CLOUDS BELOW 12,000 FEET WITH
NO SIGNIFICANT WEATHER AND/OR OBSTRUCTIONS TO VISIBILITY.

* THESE REPORTS ARE NOT UNDER NWS QUALITY CONTROL AND MAY NOT
  REPORT WEATHER SUCH AS PRECIPITATION AND FOG.

KYZ079-080-083-085-087-088-110-112-115-119-120-292100
...EASTERN KENTUCKY...

CITY           SKY/WX    TMP DP  RH WIND       PRES   REMARKS
JACKSON        MOSUNNY   88  71  57 CALM      30.07F HX  94
LONDON         LGT RAIN  85  71  63 SW6       30.07F HX  90
SOMERSET*      CLOUDY    88  63  42 W10       30.05F
MONTICELLO*    MOSUNNY   91  68  46 SW8       30.06F HX  95
WILLIAMSBURG*  MOSUNNY   84  70  61 CALM      30.06F
MIDDLESBORO*   SUNNY     91  64  41 S7        30.07S HX  92
HARLAN APT*    CLEAR     88  64  45 MISG      30.08F
BLACK MTN*       N/A     77  66  69 S3          N/A
PIKEVILLE APT* MOSUNNY   84  70  61 CALM      30.09F
BIG SANDY*     CLEAR    N/A N/A N/A CALM      30.07F
MOREHEAD APT*  CLEAR     88  68  51 CALM      30.06F HX  91
$$

KYZ035-036-041-042-044-050-067-078-099-292100
...CENTRAL KENTUCKY...

CITY           SKY/WX    TMP DP  RH WIND       PRES   REMARKS
MT STERLING*   MOSUNNY   86  72  62 SW3       30.06S HX  92
FLEMING/MASON* SUNNY     88  68  51 CALM      30.05F HX  91
DANVILLE*      MOSUNNY   90  64  43 SW10      30.05F HX  91
RICHMOND*      MOSUNNY   88  64  45 SW3       30.04F
LEXINGTON      MOSUNNY   90  70  51 W8        30.03F HX  95
FRANKFORT      MOSUNNY   88  70  55 S8        30.01F HX  93
$$

KYZ091>093-OHZ055-061-077-WVZ005-015-034-035-042-292100
...SOUTHERN OHIO/WEST VIRGINIA...

CITY           SKY/WX    TMP DP  RH WIND       PRES   REMARKS
COVINGTON      MOSUNNY   87  67  51 SE6       30.02F HX  90
COLUMBUS       SUNNY     85  57  38 E7        30.06F
DAYTON         MOSUNNY   85  65  51 S9        30.06F
WILMINGTON     SUNNY     83  63  50 SE7       30.05F
HUNTINGTON     SUNNY     87  66  49 VRB3      30.05F
CHARLESTON     MOSUNNY   88  66  48 CALM      30.06F HX  90
PINEVILLE*     SUNNY     91  72  52 MISG      30.15F HX  98
BECKLEY        PTSUNNY   80  64  58 SE3       30.16F
BLUEFIELD      SUNNY     82  67  60 VRB5      30.19F
$$

VAZ002-007-008-TNZ017-027-036-066-071-292100
...SOUTHWEST VIRGINIA/EAST TENNESSEE...

CITY           SKY/WX    TMP DP  RH WIND       PRES   REMARKS
WISE*          PTSUNNY   84  63  48 S6        30.17F
JONESVILLE*      N/A     88  68  51 CALM      30.10F HX  91
ABINGDON*      SUNNY     88  67  49 CALM      30.12F HX  90
BRISTOL        MOSUNNY   91  64  40 CALM      30.08F HX  92
KNOXVILLE      MOSUNNY   91  64  40 N8        30.04F HX  92
OAK RIDGE      SUNNY     91  63  39 VRB5      30.06F HX  92
CROSSVILLE     MOSUNNY   86  55  34 SW8       30.11F
NASHVILLE      PTSUNNY   92  57  30 SW8G20    30.01F HX  90
$$

...KEY TO REMARKS...
VSB - VISIBILITY IN MILES
WCI - WIND CHILL INDEX
HX  - HEAT INDEX

$$



USA.gov is the U.S. government's official web portal to all federal, state and local government web resources and services.